MAS1057 WMKJ-WMKK

Flight info

Callsign MAS1057
Flight time 0h 29m
Altitude 20000
Route SABKA1K SABKA A457 GUPTA GUPTA1J
Aircraft B738/M-SDE2E3FGHIRWXY/LB1

Departure

Time 2026-04-30 12:12
Airport Senai International Airport (WMKJ)

Arrival

Time 2026-04-30 12:41
Airport Kuala Lumpur International Airport (WMKK)
Time Latitude Longitude Altitude Speed Heading
2026-04-30 11:40 1.63606 103.66747 139 ft 0 kts 250°
2026-04-30 11:50 1.63610 103.66759 139 ft 2 kts 251°
2026-04-30 11:50 1.63615 103.66773 139 ft 2 kts 250°
2026-04-30 11:51 1.63620 103.66786 139 ft 2 kts 250°
2026-04-30 11:51 1.63625 103.66801 139 ft 2 kts 255°
2026-04-30 11:51 1.63624 103.66816 139 ft 2 kts 294°
2026-04-30 11:51 1.63615 103.66827 139 ft 2 kts 326°
2026-04-30 11:52 1.63608 103.66831 139 ft 1 kts 343°
2026-04-30 11:52 1.63603 103.66833 139 ft 0 kts 340°
2026-04-30 12:01 1.63611 103.66830 139 ft 4 kts 340°
2026-04-30 12:01 1.63649 103.66819 139 ft 5 kts 359°
2026-04-30 12:02 1.63671 103.66843 139 ft 5 kts 68°
2026-04-30 12:02 1.63668 103.66891 139 ft 7 kts 133°
2026-04-30 12:02 1.63625 103.66914 139 ft 6 kts 157°
2026-04-30 12:02 1.63584 103.66930 139 ft 6 kts 158°
2026-04-30 12:03 1.63548 103.66944 139 ft 5 kts 158°
2026-04-30 12:03 1.63457 103.66975 139 ft 10 kts 162°
2026-04-30 12:03 1.63377 103.67001 139 ft 14 kts 160°
2026-04-30 12:04 1.63285 103.67038 139 ft 9 kts 160°
2026-04-30 12:04 1.63216 103.67062 139 ft 7 kts 160°
2026-04-30 12:04 1.63158 103.67084 139 ft 9 kts 159°
2026-04-30 12:04 1.63126 103.67096 139 ft 0 kts 159°
2026-04-30 12:06 1.63125 103.67097 139 ft 0 kts 159°
2026-04-30 12:06 1.63117 103.67100 139 ft 1 kts 159°
2026-04-30 12:06 1.63102 103.67105 139 ft 2 kts 159°
2026-04-30 12:07 1.63082 103.67113 139 ft 3 kts 159°
2026-04-30 12:07 1.63062 103.67120 139 ft 3 kts 159°
2026-04-30 12:07 1.63040 103.67129 139 ft 3 kts 159°
2026-04-30 12:07 1.63009 103.67140 139 ft 4 kts 160°
2026-04-30 12:08 1.62978 103.67151 139 ft 4 kts 160°
2026-04-30 12:08 1.62951 103.67161 139 ft 4 kts 161°
2026-04-30 12:08 1.62891 103.67182 139 ft 13 kts 160°
2026-04-30 12:08 1.62795 103.67217 139 ft 13 kts 160°
2026-04-30 12:09 1.62717 103.67259 139 ft 10 kts 122°
2026-04-30 12:09 1.62712 103.67297 139 ft 2 kts 79°
2026-04-30 12:09 1.62715 103.67306 139 ft 0 kts 74°
2026-04-30 12:09 1.62715 103.67309 139 ft 0 kts 74°
2026-04-30 12:10 1.62717 103.67313 139 ft 2 kts 74°
2026-04-30 12:10 1.62737 103.67378 139 ft 14 kts 59°
2026-04-30 12:10 1.62823 103.67388 139 ft 13 kts 340°
2026-04-30 12:11 1.62907 103.67358 139 ft 15 kts 341°
2026-04-30 12:11 1.63179 103.67260 139 ft 82 kts 343°
2026-04-30 12:11 1.63986 103.66963 142 ft 163 kts 335°
2026-04-30 12:11 1.65211 103.66560 585 ft 198 kts 348°
2026-04-30 12:12 1.66468 103.66128 1834 ft 197 kts 341°
2026-04-30 12:12 1.67594 103.65338 2613 ft 214 kts 310°
2026-04-30 12:12 1.68276 103.63935 3270 ft 236 kts 295°
2026-04-30 12:12 1.68940 103.62380 3991 ft 254 kts 296°
2026-04-30 12:13 1.69466 103.60643 4763 ft 271 kts 285°
2026-04-30 12:13 1.70139 103.58845 5576 ft 280 kts 302°
2026-04-30 12:13 1.71141 103.57208 6609 ft 284 kts 303°
2026-04-30 12:13 1.72092 103.55440 7544 ft 291 kts 299°
2026-04-30 12:14 1.72968 103.53629 8431 ft 298 kts 298°
2026-04-30 12:14 1.73866 103.51753 9316 ft 304 kts 298°
2026-04-30 12:14 1.74793 103.49815 10222 ft 310 kts 297°
2026-04-30 12:14 1.75739 103.47828 10905 ft 323 kts 297°
2026-04-30 12:15 1.76699 103.45771 11472 ft 339 kts 296°
2026-04-30 12:15 1.77724 103.43582 12001 ft 355 kts 297°
2026-04-30 12:15 1.78808 103.41298 12532 ft 370 kts 297°
2026-04-30 12:15 1.79914 103.38963 13288 ft 376 kts 296°
2026-04-30 12:16 1.81041 103.36575 14094 ft 380 kts 296°
2026-04-30 12:16 1.82146 103.34226 14830 ft 384 kts 296°
2026-04-30 12:16 1.83271 103.31835 15549 ft 389 kts 296°
2026-04-30 12:16 1.84419 103.29391 16263 ft 393 kts 296°
2026-04-30 12:17 1.86815 103.24427 17650 ft 400 kts 297°
2026-04-30 12:17 1.88053 103.21915 18257 ft 406 kts 297°
2026-04-30 12:17 1.89271 103.19420 19068 ft 404 kts 297°
2026-04-30 12:18 1.90509 103.16891 19635 ft 406 kts 297°
2026-04-30 12:18 1.91692 103.14333 19811 ft 409 kts 295°
2026-04-30 12:18 1.92786 103.11691 19841 ft 406 kts 294°
2026-04-30 12:18 1.93842 103.09077 19850 ft 402 kts 293°
2026-04-30 12:19 1.94889 103.06484 19857 ft 402 kts 293°
2026-04-30 12:19 1.95927 103.03896 19856 ft 404 kts 294°
2026-04-30 12:19 1.96981 103.01281 19864 ft 404 kts 294°
2026-04-30 12:19 1.97999 102.98663 19865 ft 404 kts 291°
2026-04-30 12:20 1.98984 102.96030 19866 ft 404 kts 294°
2026-04-30 12:20 2.00073 102.93474 19865 ft 405 kts 295°
2026-04-30 12:20 2.01210 102.90886 19862 ft 404 kts 295°
2026-04-30 12:20 2.02323 102.88335 19860 ft 403 kts 295°
2026-04-30 12:21 2.03438 102.85752 19864 ft 403 kts 294°
2026-04-30 12:21 2.04551 102.83152 19864 ft 403 kts 294°
2026-04-30 12:21 2.05641 102.80588 19862 ft 403 kts 294°
2026-04-30 12:21 2.06725 102.78022 19821 ft 398 kts 294°
2026-04-30 12:22 2.07773 102.75532 19785 ft 382 kts 294°
2026-04-30 12:22 2.08793 102.73103 19666 ft 369 kts 294°
2026-04-30 12:22 2.09759 102.70803 19568 ft 356 kts 294°
2026-04-30 12:22 2.10675 102.68621 19530 ft 341 kts 295°
2026-04-30 12:23 2.11562 102.66509 19469 ft 328 kts 294°
2026-04-30 12:23 2.12431 102.64432 19430 ft 314 kts 294°
2026-04-30 12:23 2.13259 102.62454 19302 ft 306 kts 294°
2026-04-30 12:23 2.14077 102.60506 19004 ft 304 kts 294°
2026-04-30 12:24 2.14910 102.58523 18514 ft 317 kts 294°
2026-04-30 12:24 2.15768 102.56478 17970 ft 324 kts 294°
2026-04-30 12:24 2.16645 102.54386 17319 ft 333 kts 294°
2026-04-30 12:24 2.17546 102.52232 16620 ft 342 kts 294°
2026-04-30 12:25 2.18483 102.49992 15877 ft 351 kts 294°
2026-04-30 12:25 2.19427 102.47730 15193 ft 357 kts 294°
2026-04-30 12:25 2.20384 102.45440 14760 ft 353 kts 294°
2026-04-30 12:25 2.21319 102.43198 14338 ft 350 kts 294°
2026-04-30 12:26 2.22248 102.40974 13880 ft 348 kts 294°
2026-04-30 12:26 2.23175 102.38755 13468 ft 345 kts 294°
2026-04-30 12:26 2.24098 102.36548 13011 ft 343 kts 294°
2026-04-30 12:26 2.25025 102.34333 12582 ft 340 kts 294°
2026-04-30 12:27 2.25927 102.32175 12167 ft 337 kts 294°
2026-04-30 12:27 2.26814 102.30051 12030 ft 324 kts 294°
2026-04-30 12:27 2.27661 102.28022 11935 ft 311 kts 294°
2026-04-30 12:27 2.28488 102.26044 11735 ft 303 kts 294°
2026-04-30 12:28 2.29305 102.24094 11366 ft 302 kts 295°
2026-04-30 12:28 2.30110 102.22176 11001 ft 301 kts 295°
2026-04-30 12:28 2.30913 102.20253 10662 ft 299 kts 295°
2026-04-30 12:28 2.31715 102.18334 10299 ft 297 kts 295°
2026-04-30 12:29 2.32505 102.16444 9944 ft 296 kts 295°
2026-04-30 12:29 2.33303 102.14528 9567 ft 295 kts 295°
2026-04-30 12:29 2.34092 102.12636 9195 ft 294 kts 295°
2026-04-30 12:29 2.34860 102.10799 8875 ft 291 kts 295°
2026-04-30 12:30 2.35636 102.08945 8617 ft 286 kts 295°
2026-04-30 12:30 2.36392 102.07138 8486 ft 276 kts 295°
2026-04-30 12:30 2.37113 102.05411 8298 ft 269 kts 295°
2026-04-30 12:30 2.37792 102.03709 7985 ft 265 kts 293°
2026-04-30 12:31 2.38423 102.01935 7349 ft 273 kts 292°
2026-04-30 12:31 2.39046 102.00148 7086 ft 267 kts 292°
2026-04-30 12:31 2.39635 101.98467 7035 ft 252 kts 292°
2026-04-30 12:31 2.40207 101.96841 7029 ft 235 kts 292°
2026-04-30 12:32 2.40760 101.95361 7031 ft 220 kts 299°
2026-04-30 12:32 2.41579 101.94138 7040 ft 210 kts 316°
2026-04-30 12:32 2.42562 101.93068 7092 ft 200 kts 316°
2026-04-30 12:32 2.43487 101.92063 6915 ft 197 kts 320°
2026-04-30 12:33 2.44557 101.91150 6489 ft 204 kts 326°
2026-04-30 12:33 2.45685 101.90272 6139 ft 206 kts 326°
2026-04-30 12:33 2.46809 101.89394 5859 ft 202 kts 326°
2026-04-30 12:33 2.47907 101.88542 5579 ft 198 kts 327°
2026-04-30 12:34 2.48981 101.87714 5309 ft 194 kts 326°
2026-04-30 12:34 2.50044 101.86898 5040 ft 190 kts 326°
2026-04-30 12:34 2.51101 101.86092 4778 ft 187 kts 327°
2026-04-30 12:34 2.52125 101.85314 4530 ft 184 kts 327°
2026-04-30 12:35 2.53148 101.84545 4292 ft 182 kts 327°
2026-04-30 12:35 2.54166 101.83786 4040 ft 181 kts 327°
2026-04-30 12:35 2.55180 101.83036 3794 ft 181 kts 327°
2026-04-30 12:35 2.56128 101.82216 3554 ft 182 kts 316°
2026-04-30 12:36 2.57055 101.81360 3323 ft 178 kts 327°
2026-04-30 12:36 2.58054 101.80656 3083 ft 176 kts 328°
2026-04-30 12:36 2.59075 101.79957 2846 ft 174 kts 329°
2026-04-30 12:36 2.60059 101.79295 2621 ft 168 kts 329°
2026-04-30 12:37 2.61037 101.78641 2415 ft 170 kts 329°
2026-04-30 12:37 2.62020 101.77988 2182 ft 168 kts 329°
2026-04-30 12:37 2.62883 101.77409 1969 ft 157 kts 329°
2026-04-30 12:37 2.63012 101.77322 1943 ft 156 kts 329°
2026-04-30 12:38 2.63903 101.76730 1755 ft 151 kts 329°
2026-04-30 12:38 2.64780 101.76148 1561 ft 150 kts 328°
2026-04-30 12:38 2.65649 101.75571 1369 ft 152 kts 328°
2026-04-30 12:38 2.66538 101.74978 1167 ft 151 kts 328°
2026-04-30 12:39 2.67407 101.74400 978 ft 149 kts 327°
2026-04-30 12:39 2.68260 101.73832 783 ft 145 kts 327°
2026-04-30 12:39 2.69091 101.73278 597 ft 143 kts 327°
2026-04-30 12:39 2.69958 101.72710 473 ft 151 kts 329°
2026-04-30 12:40 2.70867 101.72117 216 ft 155 kts 322°
2026-04-30 12:40 2.71719 101.71538 83 ft 139 kts 325°
2026-04-30 12:40 2.72444 101.71063 74 ft 103 kts 325°
2026-04-30 12:40 2.72923 101.70738 74 ft 69 kts 327°
2026-04-30 12:41 2.73183 101.70567 74 ft 33 kts 326°
2026-04-30 12:41 2.73341 101.70480 74 ft 22 kts 343°
2026-04-30 12:41 2.73488 101.70460 74 ft 15 kts 356°
2026-04-30 12:41 2.73554 101.70458 74 ft 3 kts 359°
2026-04-30 12:42 2.73578 101.70457 74 ft 3 kts 359°
2026-04-30 12:42 2.73604 101.70457 74 ft 3 kts 360°
2026-04-30 12:42 2.73659 101.70465 74 ft 12 kts 29°
2026-04-30 12:42 2.73700 101.70511 74 ft 2 kts 54°
2026-04-30 12:43 2.73738 101.70525 74 ft 11 kts 350°
2026-04-30 12:43 2.73825 101.70476 74 ft 17 kts 326°
2026-04-30 12:43 2.73947 101.70393 74 ft 23 kts 326°
2026-04-30 12:43 2.74080 101.70302 74 ft 22 kts 323°
2026-04-30 12:44 2.74209 101.70222 74 ft 21 kts 332°
2026-04-30 12:44 2.74300 101.70161 74 ft 11 kts 322°
2026-04-30 12:44 2.74361 101.70116 74 ft 10 kts 324°
2026-04-30 12:44 2.74420 101.70074 74 ft 9 kts 325°
2026-04-30 12:45 2.74474 101.70038 74 ft 9 kts 327°
2026-04-30 12:45 2.74527 101.70004 74 ft 8 kts 327°
2026-04-30 12:45 2.74575 101.69973 74 ft 7 kts 327°
2026-04-30 12:45 2.74620 101.69945 74 ft 7 kts 329°
2026-04-30 12:46 2.74669 101.69932 74 ft 9 kts 12°
2026-04-30 12:46 2.74717 101.69990 74 ft 10 kts 55°
2026-04-30 12:46 2.74758 101.70048 74 ft 9 kts 56°
2026-04-30 12:46 2.74795 101.70103 74 ft 9 kts 56°
2026-04-30 12:47 2.74830 101.70154 74 ft 8 kts 56°
2026-04-30 12:47 2.74862 101.70201 74 ft 7 kts 57°
2026-04-30 12:47 2.74890 101.70245 74 ft 7 kts 57°
2026-04-30 12:47 2.74916 101.70283 74 ft 6 kts 56°
2026-04-30 12:48 2.74940 101.70319 74 ft 5 kts 56°
2026-04-30 12:48 2.74962 101.70351 74 ft 5 kts 56°
2026-04-30 12:48 2.74987 101.70369 74 ft 4 kts 359°
2026-04-30 12:48 2.75014 101.70355 74 ft 4 kts 327°
2026-04-30 12:49 2.75036 101.70341 74 ft 2 kts 326°
2026-04-30 12:49 2.75042 101.70337 74 ft 0 kts 327°
2026-04-30 12:49 2.75044 101.70336 74 ft 0 kts 326°
2026-04-30 12:49 2.75044 101.70335 74 ft 0 kts 326°